Volver al catálogo

STARLINK-32283

ActivoComunicacionesVLEO
NORAD 62425·PAYLOAD·🇺🇸 United States

Lanzado Dec 23, 2024 desde Cape Canaveral Space Force Station

Loading…

Próximos Pases (próximas 24 horas)

TLE

ActualizadoSource: CelesTrak SupGP

Época: Sep 14, 2026, 21:32 UTC

1 62425C 24249S   26257.89770833 -.00027184  00000+0 -98448-3 0  2573
2 62425  43.0032 321.9676 0001848 272.7877  15.5903 15.27594942    10

Sigue STARLINK-32283 en tiempo real con AllMySat

Download on the App Store